Location: Unspecified
(47.9110°N, 14.3980°E)
Time: 17:28:51
(UTC+00:00)

Cosmos 2227 Rocket - Pass Details

Date: 06 August 2020
Orbit: 840 x 843 km, 71.0° (Epoch: 24 September)

Event Time Altitude Azimuth Distance (km) Brightness Sun altitude
Exits shadow 23:51:35 22° 117° (ESE) 1,758 3.7 -25.0°
Maximum altitude 23:52:33 23° 102° (ESE) 1,713 3.8 -25.0°
Drops below altitude 10° 23:56:55 10° 51° (NE) 2,471 5.3 -24.8°
Sets 23:59:48 0° 38° (NE) 3,410 6.4 -24.7°
